New Orleans NAS, LA

11:44 AM CDT on August 23, 2017 (GMT -0500)
New Orleans Naval Air Station

Weather History for KNBG - December, 2013

Change the Weather History Date:

Wednesday, December 4, 2013

  Actual Average Record
Temperature  
Mean Temperature 75 °F -  
Max Temperature 81 °F 64 °F 81 °F (2013)
Min Temperature 69 °F 49 °F 1 °F (2007)
Cooling Degree Days 10    
Growing Degree Days 25 (Base 50)    
Moisture  
Dew Point 69 °F    
Average Humidity 88    
Maximum Humidity 94    
Minimum Humidity 65    
Precipitation  
Precipitation 0.00 in - - ()
Sea Level Pressure  
Sea Level Pressure 29.90 in    
Wind  
Wind Speed 10 mph (SSW)    
Max Wind Speed 20 mph    
Max Gust Speed 26 mph    
Visibility 5 miles    
Events Fog , Rain    
Averages and records for this station are not official NWS values.
T = Trace of Precipitation, MM = Missing Value Source: NWS Daily Summary

Daily Weather History Graph

Daily Weather History Graph

Search for Another Location

Airport or City:

Trip Planner

Search our weather history database for the weather conditions in past years. The results will help you decide how hot, cold, wet, or windy it might be!

Date:

Astronomy

Dec. 04, 2013 Rise Set
Actual Time 6:40 AM CST 5:00 PM CST
Civil Twilight 6:14 AM CST 5:26 PM CST
Nautical Twilight 5:44 AM CST 5:55 PM CST
Astronomical Twilight 5:15 AM CST 6:24 PM CST
Moon 8:11 AM CST (12/4) 7:07 PM CST (12/4)
Length of Visible Light 11h 11m
Length of Day
10h 19m
Waxing Crescent, 4% of the Moon is Illuminated
Dec 4
Waxing Crescent
Dec 9
First Quarter
Dec 17
Full
Dec 25
Last Quarter
Jan 1
New

Hourly Weather History & Observations

Time (CST) Temp. Heat Index Dew Point Humidity Pressure Visibility Wind Dir Wind Speed Gust Speed Precip Events Conditions
12:55 AM 70.0 °F - 66.9 °F 90% 29.85 in 5.0 mi SSW 9.2 mph - N/A   Overcast
1:51 AM 69.8 °F - 66.2 °F 88% 29.86 in 3.0 mi SSW 6.9 mph - N/A   Overcast
2:55 AM 70.0 °F - 68.0 °F 93% 29.86 in 5.0 mi South 8.1 mph - N/A   Overcast
3:42 AM 69.8 °F - 68.0 °F 94% 29.86 in 2.5 mi SSW 9.2 mph - N/A   Overcast
3:55 AM 70.0 °F - 68.0 °F 93% 29.86 in 2.5 mi SSW 9.2 mph - N/A   Overcast
4:55 AM 70.0 °F - 68.0 °F 93% 29.87 in 0.8 mi SSW 9.2 mph - N/A   Mist
5:25 AM 69.8 °F - 68.0 °F 94% 29.87 in 2.0 mi South 10.4 mph - N/A   Overcast
5:55 AM 69.1 °F - 66.9 °F 93% 29.87 in 1.2 mi South 9.2 mph - N/A   Overcast
6:12 AM 69.8 °F - 68.0 °F 94% 29.88 in 0.5 mi South 8.1 mph - N/A Fog Fog
6:55 AM 70.0 °F - 68.0 °F 93% 29.89 in 0.2 mi South 9.2 mph - N/A Fog Fog
7:26 AM 69.8 °F - 68.0 °F 94% 29.91 in 1.0 mi South 6.9 mph - N/A   Overcast
7:55 AM 71.1 °F - 68.0 °F 90% 29.92 in 0.5 mi South 10.4 mph - N/A Fog Fog
8:17 AM 71.6 °F - 69.8 °F 94% 29.93 in 1.0 mi South 10.4 mph - N/A   Overcast
8:55 AM 73.0 °F - 70.0 °F 90% 29.94 in 3.0 mi SSW 10.4 mph - N/A   Overcast
9:55 AM 75.9 °F - 70.0 °F 82% 29.96 in 7.0 mi SSW 12.7 mph - N/A   Overcast
10:55 AM 78.1 °F - 69.1 °F 74% 29.95 in 10.0 mi SSW 11.5 mph - N/A   Overcast
11:34 AM 78.8 °F - 69.8 °F 74% 29.93 in 10.0 mi SSW 12.7 mph 24.2 mph N/A   Mostly Cloudy
11:55 AM 79.0 °F - 68.0 °F 69% 29.92 in 10.0 mi SSW 19.6 mph 26.5 mph N/A   Mostly Cloudy
12:55 PM 81.0 °F 83.8 °F 68.0 °F 65% 29.89 in 10.0 mi SSW 15.0 mph 25.3 mph N/A   Mostly Cloudy
1:55 PM 80.1 °F 82.9 °F 69.1 °F 69% 29.87 in 10.0 mi SSW 15.0 mph - N/A   Mostly Cloudy
2:55 PM 79.0 °F - 70.0 °F 74% 29.87 in 10.0 mi SSW 13.8 mph - N/A   Mostly Cloudy
3:55 PM 75.0 °F - 71.1 °F 87% 29.87 in 5.0 mi South 6.9 mph - 0.00 in Rain Light Rain
4:15 PM 75.2 °F - 71.6 °F 89% 29.88 in 6.0 mi SSW 6.9 mph - 0.00 in   Overcast
4:55 PM 73.9 °F - 71.1 °F 91% 29.88 in 6.0 mi South 8.1 mph - 0.00 in   Overcast
5:55 PM 73.0 °F - 70.0 °F 90% 29.89 in 6.0 mi South 8.1 mph - N/A   Overcast
6:55 PM 73.0 °F - 70.0 °F 90% 29.90 in 7.0 mi South 6.9 mph - N/A   Overcast
7:55 PM 73.0 °F - 70.0 °F 90% 29.92 in 8.0 mi South 8.1 mph - N/A   Overcast
8:27 PM 73.4 °F - 71.6 °F 94% 29.93 in 3.0 mi South 9.2 mph - N/A   Overcast
8:55 PM 73.0 °F - 71.1 °F 93% 29.94 in 3.0 mi SSW 10.4 mph - N/A   Overcast
9:55 PM 73.0 °F - 71.1 °F 93% 29.94 in 4.0 mi SSW 11.5 mph - N/A   Overcast
10:55 PM 73.0 °F - 71.1 °F 93% 29.96 in 5.0 mi SSW 9.2 mph - N/A   Overcast
11:55 PM 73.0 °F - 71.1 °F 93% 29.96 in 5.0 mi SSW 10.4 mph - N/A   Overcast